Theta_e
319 316 314 309 296 293 289 292 292 293 293 296 299 298 298 298 299 293 309 320 325 329 333 338 346 348 347 345 347 347 346 346 345 345 344 342 339 336 335 335 335 337 338 340 340 338 334 334 336
315 316 310 301 292 286 288 293 293 295 296 298 298 297 296 298 304 305 311 320 326 328 330 333 341 347 347 347 346 345 345 344 343 341 339 337 336 334 333 332 332 333 334 334 333 331 329 329 329
313 312 305 296 289 287 289 292 293 295 296 295 296 297 297 299 302 305 311 321 322 323 326 330 339 342 344 340 341 341 340 341 340 337 336 334 332 330 328 326 326 331 330 328 325 323 321 321 322
308 304 298 294 291 294 293 295 294 295 295 297 296 296 300 303 304 307 311 319 318 319 323 331 338 340 339 337 338 337 339 339 337 334 332 330 328 325 323 322 323 324 322 321 320 319 318 318 318
303 299 291 289 289 292 293 295 296 296 294 295 296 294 296 300 303 307 315 317 315 315 319 326 337 339 336 336 337 336 336 335 333 330 327 325 323 323 322 321 321 321 320 319 318 317 318 318 318
298 296 290 287 289 293 295 296 296 294 294 294 295 296 297 298 303 306 311 311 314 314 317 322 331 333 334 335 335 335 334 332 328 325 324 323 322 321 320 320 320 319 319 318 318 318 317 317 315
296 294 289 287 290 293 295 296 294 294 293 296 295 294 297 296 302 306 308 308 310 312 313 316 320 325 329 331 332 333 329 327 324 322 321 320 319 319 318 318 318 318 318 317 315 314 314 313 313
298 294 289 288 289 292 295 294 294 296 296 296 299 295 295 296 302 304 305 305 307 308 310 311 312 316 316 318 325 326 326 324 321 320 319 317 316 316 315 317 317 316 316 314 312 311 310 310 309
297 289 286 289 290 293 294 293 295 295 294 295 299 296 297 298 300 300 299 301 303 306 306 306 308 309 310 311 315 320 322 321 320 317 316 310 300 302 303 311 313 312 312 311 309 307 305 303 303
295 287 289 292 294 292 294 294 294 297 292 294 296 295 297 298 299 299 297 300 300 302 303 304 304 304 305 309 308 307 308 306 304 302 301 297 296 297 301 306 309 308 307 308 306 303 300 295 291
296 292 294 296 298 296 295 293 296 293 293 295 296 297 296 295 296 299 300 301 302 303 302 303 303 301 302 303 302 300 299 298 297 297 294 294 295 297 295 294 292 291 295 290 292 290 290 290 290
293 297 296 298 299 296 294 295 294 294 299 298 298 296 296 295 296 298 298 299 299 298 301 301 301 300 299 299 299 297 296 295 294 294 294 293 293 291 290 290 289 288 288 288 288 288 288 288 289
294 296 298 298 298 297 296 296 295 295 298 298 297 296 296 296 297 298 299 298 297 298 299 299 299 299 299 296 296 295 295 296 294 293 294 293 291 290 289 289 288 287 287 287 286 287 287 287 288
294 296 296 297 297 297 296 295 294 300 297 297 296 296 295 296 297 296 295 296 294 296 297 298 298 299 298 296 296 296 294 294 293 292 293 292 291 289 289 288 287 286 286 286 286 286 285 285 287
296 293 293 294 296 295 295 293 292 299 295 297 296 296 295 296 296 296 298 298 297 296 296 295 297 297 297 295 295 294 294 294 293 292 291 292 290 289 288 287 286 286 286 286 286 285 285 285 286
290 289 286 291 293 293 294 289 295 296 295 296 296 294 294 296 297 299 299 299 298 297 295 295 297 296 296 295 294 294 294 294 293 291 290 291 290 289 287 287 286 286 285 285 284 284 283 283 283
284 282 284 288 294 293 291 289 294 295 293 294 294 295 295 295 295 297 299 299 298 297 296 294 295 295 295 295 294 293 293 293 293 290 289 289 289 288 287 286 285 285 284 284 285 283 283 282 282
282 282 284 284 289 289 288 289 294 296 293 294 294 294 295 296 298 300 298 299 299 297 297 295 294 295 294 294 292 291 291 292 290 291 290 288 289 288 286 285 285 285 284 283 283 282 282 282 281
284 283 284 288 291 288 289 291 293 296 295 292 294 296 298 298 302 301 298 297 297 296 296 295 293 294 294 292 290 290 291 290 289 290 290 288 288 287 286 285 284 284 283 283 282 282 281 281 281
287 286 286 290 292 287 289 289 292 294 295 297 298 298 297 299 299 300 295 294 295 295 296 295 294 294 294 294 294 293 293 289 291 289 289 288 287 286 285 285 284 283 282 282 282 282 280 281 280
285 284 287 286 288 287 285 287 289 292 294 297 298 299 299 298 298 299 297 292 295 295 295 295 294 293 294 294 293 286 286 285 285 286 287 287 287 286 285 284 284 283 282 281 281 281 281 280 280
286 289 289 287 284 282 285 280 285 288 289 291 294 296 296 297 298 298 298 292 292 295 296 295 294 293 294 293 292 291 290 289 288 290 288 287 286 285 285 284 283 283 282 281 281 281 280 280 279
287 288 287 284 282 281 281 279 284 287 286 290 294 295 296 297 296 297 298 295 293 294 294 294 293 292 293 292 292 291 291 291 287 285 284 286 285 285 284 284 282 282 282 281 281 280 280 280 279
289 285 284 282 281 278 283 282 284 284 287 289 291 293 295 296 296 296 295 293 292 291 292 292 291 291 292 291 291 291 290 287 285 285 285 285 285 284 284 283 282 281 281 281 281 280 280 280 279
286 283 277 275 274 279 281 280 287 288 289 291 292 294 294 293 293 294 292 291 292 290 290 290 290 290 291 290 290 290 290 288 288 285 286 284 284 283 283 283 281 281 280 280 280 280 280 279 279
285 285 278 271 277 282 280 279 288 290 291 291 290 291 292 292 293 293 292 292 290 289 288 290 289 289 290 289 290 290 290 289 288 286 287 286 285 285 284 283 282 280 280 280 280 280 279 279 279
282 281 286 280 268 272 282 284 291 290 289 288 290 289 290 290 290 290 290 290 289 288 288 288 288 290 289 289 289 289 289 289 287 286 286 286 285 285 283 283 282 281 280 280 279 279 278 278 279
285 285 280 278 271 270 278 279 283 288 290 291 290 291 290 290 290 289 290 290 289 288 287 287 288 289 288 288 289 289 288 288 287 285 285 285 285 284 282 283 282 281 280 280 279 278 278 278 277
281 282 283 283 282 279 277 281 292 292 292 289 288 289 290 290 290 292 291 291 289 287 287 286 287 288 287 288 288 288 288 288 287 285 285 285 284 283 283 282 281 281 280 279 278 278 277 277 276
285 285 285 281 280 282 282 283 295 295 296 295 295 296 295 292 291 289 290 290 290 288 287 286 286 288 289 289 288 287 288 287 286 286 284 285 283 283 283 282 281 280 280 279 278 277 277 276 276
Wind_Speed
3 3 2 5 5 5 4 6 3 2 1 2 4 5 9 4 7 7 3 5 6 8 7 7 9 15 15 13 15 14 12 12 11 12 10 10 9 7 7 6 6 7 8 8 10 11 9 9 11
2 1 5 3 5 3 6 5 6 5 1 5 4 2 1 6 2 2 3 7 8 8 5 6 8 13 17 17 16 14 14 12 10 11 9 7 7 6 7 7 6 5 5 5 7 7 7 8 7
1 4 4 5 4 5 5 5 5 1 3 2 1 2 3 4 2 6 6 11 8 7 6 6 8 11 11 14 12 12 9 10 12 11 8 8 8 9 8 8 7 9 8 8 7 7 7 8 9
3 5 5 4 6 8 8 7 5 3 2 4 2 4 2 3 4 6 8 10 8 6 6 8 11 13 13 13 14 13 10 12 12 12 12 11 11 10 9 8 7 8 8 8 8 8 9 9 10
5 3 3 1 6 7 6 5 7 6 2 3 4 4 4 3 0 6 11 10 10 7 5 5 10 13 14 14 15 15 14 15 15 15 14 13 12 12 12 11 10 10 9 8 8 9 10 10 11
4 3 3 4 6 6 7 5 6 4 2 1 2 1 6 1 7 7 8 8 7 9 7 6 8 11 13 15 15 15 16 15 15 14 14 14 13 13 12 11 11 10 10 9 10 10 9 10 11
6 4 4 4 6 6 6 7 5 5 2 7 2 4 4 3 6 8 8 7 6 6 6 5 6 8 10 12 13 14 16 16 16 15 15 14 13 13 12 11 11 11 10 10 10 10 10 10 11
5 4 2 5 3 6 4 3 1 6 8 1 7 6 7 3 8 7 6 6 6 6 6 6 5 6 6 6 10 12 14 15 16 15 14 13 13 13 12 9 11 11 11 10 9 10 10 11 11
4 3 3 6 5 5 1 3 3 1 2 3 7 4 2 5 10 7 4 3 4 6 7 7 7 6 5 5 5 9 11 13 13 12 13 10 4 6 7 7 12 11 11 11 10 10 10 10 10
4 4 8 6 4 4 3 4 3 1 3 5 5 1 3 7 9 11 10 13 10 10 9 7 7 7 6 4 5 5 4 4 5 5 6 5 5 5 5 7 11 11 10 10 10 9 9 6 3
5 7 6 7 8 4 4 3 5 5 8 9 10 9 7 8 10 13 13 13 18 10 7 10 8 7 7 5 4 3 2 3 3 6 6 5 4 3 3 3 3 3 6 3 4 4 3 5 3
3 9 6 6 5 3 4 3 6 9 18 6 13 3 8 12 15 17 17 16 13 14 14 11 10 9 7 5 5 5 4 4 4 5 7 5 3 4 4 3 4 3 2 4 3 2 3 4 4
5 5 6 8 8 7 4 11 8 12 15 10 8 7 11 12 17 15 15 11 10 14 14 14 13 12 10 8 5 6 6 6 5 5 6 5 5 5 4 4 3 3 3 3 3 3 3 4 5
2 5 7 6 6 6 6 9 3 22 6 12 9 13 11 14 19 10 10 15 15 15 16 15 16 14 12 11 10 9 7 6 5 5 6 6 5 5 4 4 4 3 3 3 3 3 3 2 2
4 8 8 7 8 10 6 11 13 25 5 12 11 11 10 17 10 20 20 20 18 17 13 18 18 16 15 15 11 9 8 7 7 7 7 7 6 6 6 5 4 4 3 5 4 3 2 4 4
5 0 5 1 6 4 8 16 17 11 7 15 13 11 11 13 19 20 17 19 15 13 17 15 15 17 17 15 11 9 8 8 7 6 5 8 7 8 6 5 4 4 4 4 4 2 2 2 3
3 6 9 13 13 6 8 12 10 4 6 12 11 11 11 13 11 16 20 18 17 19 16 17 18 19 20 15 10 9 10 8 7 6 6 8 8 8 7 5 5 5 4 4 3 1 2 2 2
9 6 7 8 6 5 6 15 14 15 9 13 13 13 13 14 22 16 15 17 17 16 17 16 15 17 16 11 8 5 6 7 5 8 8 10 8 9 7 5 6 5 4 4 3 3 1 2 0
2 6 7 13 9 4 11 19 19 18 14 14 16 18 22 20 26 15 11 12 13 13 16 18 19 19 15 12 11 9 13 9 7 8 11 11 9 9 8 5 6 5 5 6 5 3 3 3 3
10 13 19 17 20 5 18 24 21 15 18 24 24 21 22 21 18 18 9 9 15 18 20 18 20 19 17 14 13 7 10 6 8 7 8 10 10 10 8 8 7 7 5 6 5 4 3 2 3
7 8 20 18 9 6 11 19 16 15 21 25 26 25 20 21 22 19 11 12 12 15 17 19 22 22 19 17 10 4 6 4 3 6 7 9 11 10 10 10 8 8 5 6 5 5 5 4 0
16 12 15 14 5 9 2 19 7 11 12 10 19 19 14 17 17 17 16 10 11 17 14 14 15 16 17 19 17 19 13 12 10 11 8 8 11 12 11 10 9 8 5 6 6 5 4 5 4
11 3 7 2 4 7 5 6 3 7 8 14 18 16 16 16 14 18 19 10 10 10 14 15 16 17 18 18 19 17 15 11 6 5 10 10 9 11 11 11 9 8 6 6 7 6 6 3 4
3 1 1 4 1 11 13 9 4 7 9 6 6 10 12 15 12 11 9 5 8 7 10 14 17 18 19 19 18 20 19 12 9 11 12 10 8 8 10 11 10 8 7 7 6 5 7 5 4
4 6 4 5 1 15 4 8 16 6 7 9 10 11 11 9 10 12 10 7 8 10 10 11 17 18 19 19 18 19 17 15 17 13 12 13 10 9 12 12 10 8 8 7 7 7 6 6 5
10 11 9 9 15 19 4 15 17 9 8 8 6 9 9 9 10 12 13 11 8 6 7 11 13 15 17 18 20 16 16 11 11 13 11 11 12 12 13 13 12 10 10 8 7 5 5 5 5
4 7 4 1 0 1 13 18 23 11 9 3 7 7 10 9 8 9 10 7 7 7 8 7 8 10 13 14 12 14 14 14 12 10 10 9 9 9 13 15 13 13 12 11 10 7 7 6 5
7 1 3 2 4 10 11 8 20 17 15 12 10 12 9 7 8 7 7 7 6 5 4 8 8 11 9 11 14 13 14 14 11 10 13 13 10 12 14 15 15 14 13 12 12 7 6 8 5
2 5 5 3 6 15 18 14 23 25 14 12 9 9 9 9 10 9 9 6 5 3 6 8 9 10 10 13 13 14 13 14 13 13 14 14 13 14 15 16 15 15 15 13 12 11 11 11 9
3 8 9 12 12 13 20 20 24 31 25 21 23 21 11 8 9 7 7 5 4 7 8 9 8 11 13 12 14 15 12 12 14 14 14 14 15 15 16 15 16 16 16 16 16 15 13 13 12
Wind_Direction
9 345 79 40 47 60 266 264 253 243 223 193 132 153 191 169 168 210 330 187 143 148 161 156 162 160 157 164 159 148 146 145 135 120 118 102 93 103 97 85 64 48 58 61 61 53 39 24 20
6 74 43 80 85 42 274 259 239 220 219 114 116 70 164 230 187 245 127 196 164 154 155 155 164 160 156 155 151 149 154 143 131 102 92 102 110 117 101 99 91 86 99 70 57 50 43 35 28
15 39 83 95 120 190 223 235 242 242 160 180 168 213 184 231 211 195 226 155 152 155 155 165 169 166 157 169 173 169 150 133 116 115 130 131 131 118 112 100 93 92 83 85 76 63 50 40 35
61 12 34 94 233 250 213 250 208 184 254 228 177 243 277 211 170 193 153 145 143 154 159 170 175 169 163 174 177 169 156 144 136 150 151 145 137 129 120 114 112 97 92 84 74 62 55 52 49
32 55 63 255 254 264 247 246 172 181 222 223 175 255 246 219 66 134 147 147 152 157 165 167 177 179 175 186 183 176 170 161 161 158 155 151 149 144 137 129 121 113 104 92 80 71 68 59 52
36 90 55 254 247 261 280 181 152 200 206 291 214 150 251 350 154 169 146 151 153 156 166 172 177 171 179 179 175 176 167 164 162 161 158 153 150 145 136 133 127 115 106 98 89 79 70 64 56
118 92 228 253 263 293 252 134 183 188 193 243 177 191 269 268 208 144 141 132 145 154 158 171 165 168 179 176 175 171 168 166 164 162 161 155 149 143 136 134 127 120 114 106 97 92 81 71 61
105 94 268 253 252 274 319 210 350 161 244 60 171 232 261 244 142 110 117 141 158 171 175 176 172 166 168 167 170 169 169 167 165 161 154 148 148 144 136 133 129 123 117 108 98 88 81 73 64
123 63 245 252 187 254 173 227 182 178 233 235 213 200 309 113 117 108 123 175 191 204 192 180 177 172 161 164 168 163 166 165 162 155 150 129 123 124 124 141 124 119 115 106 93 83 78 70 61
111 149 228 218 229 260 276 201 269 297 232 254 279 238 74 137 161 169 182 196 205 206 203 189 179 174 163 161 157 145 149 143 136 138 131 138 142 142 134 122 122 117 113 110 101 92 82 79 70
181 215 218 255 232 256 261 252 221 194 263 209 216 226 171 180 191 196 205 201 208 203 196 194 184 174 167 168 155 149 146 150 155 162 156 157 149 128 124 102 96 96 98 70 82 82 73 61 45
223 245 215 257 218 243 242 267 261 191 244 199 226 171 170 192 201 205 209 209 194 192 199 188 186 179 180 161 172 166 167 172 182 182 168 157 155 155 152 149 146 134 125 111 105 76 68 54 58
230 254 242 259 276 259 307 247 245 254 253 258 245 200 205 207 215 219 221 219 201 205 197 195 184 188 184 179 170 175 186 184 183 181 183 162 165 168 160 154 144 140 139 137 108 89 61 42 28
229 259 269 277 239 249 220 269 136 268 239 249 248 238 224 214 218 222 218 219 205 205 203 189 193 189 180 189 186 188 184 187 180 182 187 175 162 159 165 155 165 147 137 114 112 93 70 57 33
290 309 308 214 228 229 155 286 231 255 187 263 247 250 239 230 208 221 221 222 210 210 197 194 190 186 187 191 188 186 188 184 187 190 181 173 169 168 161 161 173 167 155 135 111 87 63 33 1
329 326 316 318 117 252 158 264 260 259 208 257 260 261 247 245 221 232 226 223 209 205 200 190 191 189 190 192 187 188 187 186 190 182 174 175 172 170 166 163 180 166 152 134 112 93 71 50 19
316 247 233 302 200 171 189 248 273 281 200 268 275 267 262 268 245 231 228 218 206 201 196 193 191 191 192 188 183 184 183 190 188 172 179 180 175 173 168 169 175 160 149 143 148 111 128 77 359
220 222 249 242 269 190 229 253 277 280 195 241 260 269 266 266 261 246 226 214 207 200 197 193 193 193 187 178 167 165 179 193 176 188 186 178 181 174 168 165 168 159 150 151 146 143 106 131 3
201 238 238 252 260 221 236 259 258 263 275 254 251 255 259 252 260 264 226 203 199 189 190 190 186 190 176 178 176 188 198 193 193 190 185 182 180 176 171 169 165 165 166 173 170 145 126 46 14
238 259 264 275 265 222 266 262 264 255 253 258 258 256 257 261 266 264 242 197 196 195 196 192 196 185 189 187 191 193 187 192 194 182 182 184 179 175 172 173 175 174 160 167 172 158 126 107 14
220 230 260 261 307 236 281 271 249 247 250 258 265 258 262 260 264 267 251 207 204 204 197 199 193 188 187 184 167 97 90 69 130 185 191 190 179 175 175 177 174 174 166 175 174 165 148 140 330
265 226 261 272 331 271 8 293 190 235 235 235 253 267 252 259 260 262 262 232 199 210 198 198 195 193 189 176 175 182 189 188 197 194 188 181 180 180 177 177 177 177 171 171 170 172 158 136 157
242 207 242 241 227 319 204 262 200 180 240 246 251 257 263 251 253 261 261 231 204 203 198 186 180 183 186 191 187 184 194 191 153 150 158 176 186 186 181 177 174 178 180 174 171 162 162 160 147
112 86 76 57 96 270 202 188 10 166 212 262 247 251 257 271 272 265 294 225 233 206 191 182 180 182 184 185 191 196 192 176 161 166 172 180 184 185 187 178 175 172 173 174 175 166 166 172 166
129 94 309 321 3 256 149 215 251 255 218 218 245 272 279 316 295 304 304 260 246 213 199 186 179 188 181 183 191 195 195 185 189 179 179 173 174 188 191 179 172 175 176 171 162 166 175 176 176
186 167 170 214 267 275 120 258 272 223 251 243 288 277 287 312 306 299 278 278 257 239 191 191 194 183 185 186 192 191 195 192 191 184 181 183 191 189 174 181 178 171 169 168 170 175 173 170 175
181 183 214 9 78 280 265 273 287 247 245 264 262 277 279 289 300 299 311 292 284 201 202 221 194 196 191 193 196 198 193 193 195 184 177 184 177 177 169 177 179 176 172 172 168 178 177 167 169
172 282 35 19 195 240 256 260 257 278 275 284 296 283 284 297 304 311 319 298 264 237 199 182 191 199 193 195 198 201 197 194 182 174 187 181 177 167 170 176 181 177 175 172 172 171 166 171 176
135 225 205 188 201 252 261 257 272 277 283 284 276 264 286 307 305 327 319 294 270 265 204 205 195 195 193 194 201 203 198 191 182 190 191 185 170 173 175 178 178 180 176 174 175 178 174 180 175
166 233 220 235 246 236 253 247 274 284 289 287 281 292 292 273 273 250 272 292 282 230 236 221 209 207 211 204 206 208 200 191 191 201 195 183 184 180 178 177 178 182 181 176 181 180 183 181 182